Indianapolis Mount Comfort, IN

9:48 PM EDT on July 22, 2017 (GMT -0400)
Mount Comfort

Weather History for KMQJ - January, 2014

Change the Weather History Date:

Tuesday, January 21, 2014

  Actual Average (KEYE) Record (KEYE)
Temperature  
Mean Temperature 16 °F -  
Max Temperature 32 °F 32 °F 67 °F (2017)
Min Temperature 0 °F 17 °F -4 °F (2000)
Degree Days  
Heating Degree Days 49    
Moisture  
Dew Point 5 °F    
Average Humidity 75    
Maximum Humidity 100    
Minimum Humidity 49    
Precipitation  
Precipitation 0.00 in - - ()
Sea Level Pressure  
Sea Level Pressure 30.07 in    
Wind  
Wind Speed 14 mph (North)    
Max Wind Speed 30 mph    
Max Gust Speed 38 mph    
Visibility 6 miles    
Events      
Averages and records for this station are not official NWS values.
T = Trace of Precipitation, MM = Missing Value Source: NWS Daily Summary

Daily Weather History Graph

Daily Weather History Graph

Search for Another Location

Airport or City:

Trip Planner

Search our weather history database for the weather conditions in past years. The results will help you decide how hot, cold, wet, or windy it might be!

Date:

Astronomy

Jan. 21, 2014 Rise Set
Actual Time 8:00 AM EST 5:50 PM EST
Civil Twilight 7:30 AM EST 6:19 PM EST
Nautical Twilight 6:57 AM EST 6:52 PM EST
Astronomical Twilight 6:25 AM EST 7:24 PM EST
Moon 11:21 PM EST (1/21) 10:30 AM EST (1/21)
Length of Visible Light 10h 48m
Length of Day
9h 49m
Waning Gibbous, 75% of the Moon is Illuminated
Jan 21
Waning Gibbous
Jan 24
Last Quarter
Jan 30
New
Feb 6
First Quarter
Feb 14
Full

Hourly Weather History & Observations

Time (EST) Temp. Windchill Dew Point Humidity Pressure Visibility Wind Dir Wind Speed Gust Speed Precip Events Conditions
12:14 AM 32.0 °F 28.7 °F 32.0 °F 100% 29.85 in 7.0 mi NNE 3.5 mph - N/A   Overcast
12:35 AM 32.0 °F 25.6 °F 32.0 °F 100% 29.85 in 5.0 mi North 6.9 mph - N/A   Overcast
12:54 AM 32.0 °F 26.4 °F 32.0 °F 100% 29.84 in 7.0 mi North 5.8 mph - N/A   Overcast
1:14 AM 32.0 °F 27.5 °F 32.0 °F 100% 29.83 in 7.0 mi NNW 4.6 mph - N/A   Overcast
1:35 AM 32.0 °F 26.4 °F 32.0 °F 100% 29.83 in 2.5 mi NW 5.8 mph - N/A   Overcast
1:54 AM 30.2 °F 22.6 °F 30.2 °F 100% 29.83 in 2.5 mi NNW 8.1 mph - N/A   Overcast
2:14 AM 30.2 °F 22.6 °F - N/A% 29.82 in 1.8 mi North 8.1 mph - N/A   Overcast
2:35 AM 30.2 °F 18.5 °F - N/A% 29.82 in 1.8 mi North 17.3 mph - N/A   Overcast
2:54 AM 26.6 °F 13.4 °F 26.6 °F 100% 29.84 in 2.5 mi North 18.4 mph 23.0 mph N/A   Overcast
3:15 AM 24.8 °F 9.6 °F - N/A% - 1.5 mi North 23.0 mph - N/A   Overcast
3:35 AM 23.0 °F 8.3 °F 23.0 °F 100% 29.86 in 1.2 mi NNE 19.6 mph 23.0 mph N/A   Overcast
3:54 AM 23.0 °F 7.2 °F 23.0 °F 100% 29.87 in 0.8 mi NNE 23.0 mph 28.8 mph N/A   Overcast
4:15 AM 21.2 °F 4.2 °F 21.2 °F 100% 29.88 in 0.8 mi NNE 25.3 mph 29.9 mph N/A   Overcast
4:35 AM 17.6 °F 1.3 °F 17.6 °F 100% 29.89 in 1.0 mi NNE 19.6 mph 35.7 mph N/A   Overcast
4:54 AM 17.6 °F -0.3 °F 17.6 °F 100% 29.90 in 1.0 mi NNE 24.2 mph 34.5 mph N/A   Overcast
5:15 AM 15.8 °F -1.9 °F 14.0 °F 93% 29.90 in 1.2 mi NNE 21.9 mph 38.0 mph N/A   Overcast
5:35 AM 15.8 °F -2.7 °F 14.0 °F 93% 29.92 in 1.8 mi NNE 24.2 mph 32.2 mph N/A   Overcast
5:54 AM 14.0 °F -6.5 °F 12.2 °F 93% 29.93 in 1.2 mi NNE 28.8 mph 35.7 mph N/A   Overcast
6:15 AM 14.0 °F -5.8 °F 10.4 °F 86% 29.95 in 0.8 mi NNE 26.5 mph 38.0 mph N/A   Overcast
6:34 AM 14.0 °F -3.9 °F 10.4 °F 86% 29.97 in 1.2 mi North 20.7 mph 32.2 mph N/A   Overcast
6:54 AM 12.2 °F -8.9 °F 8.6 °F 85% 29.99 in 1.0 mi NNE 28.8 mph 34.5 mph N/A   Overcast
7:15 AM 12.2 °F -8.6 °F 8.6 °F 85% 30.01 in 1.2 mi North 27.6 mph 34.5 mph N/A   Overcast
7:34 AM 10.4 °F -11.0 °F 8.6 °F 92% 30.02 in 1.5 mi North 27.6 mph 34.5 mph N/A   Overcast
7:54 AM 10.4 °F -11.7 °F 6.8 °F 85% 30.03 in 1.5 mi North 29.9 mph 34.5 mph N/A   Overcast
8:15 AM 10.4 °F -9.9 °F 6.8 °F 85% 30.05 in 1.2 mi North 24.2 mph 29.9 mph N/A   Overcast
8:34 AM 10.4 °F -9.5 °F 6.8 °F 85% 30.06 in 2.0 mi North 23.0 mph 27.6 mph N/A   Overcast
8:54 AM 8.6 °F -12.3 °F 5.0 °F 85% 30.07 in 2.0 mi North 24.2 mph 31.1 mph N/A   Overcast
9:15 AM 8.6 °F -11.0 °F 5.0 °F 85% 30.09 in 5.0 mi North 20.7 mph 27.6 mph N/A   Mostly Cloudy
9:34 AM 8.6 °F -12.7 °F 3.2 °F 79% 30.10 in 3.0 mi North 25.3 mph 32.2 mph N/A   Scattered Clouds
9:54 AM 8.6 °F -12.3 °F 1.4 °F 73% 30.11 in 2.0 mi North 24.2 mph 33.4 mph N/A   Clear
10:15 AM 10.4 °F -8.2 °F 1.4 °F 67% 30.12 in 2.5 mi North 19.6 mph 31.1 mph N/A   Clear
10:34 AM 10.4 °F -9.1 °F 1.4 °F 67% 30.12 in 7.0 mi North 21.9 mph 26.5 mph N/A   Clear
10:54 AM 10.4 °F -9.1 °F -0.4 °F 62% 30.13 in 7.0 mi North 21.9 mph 29.9 mph N/A   Clear
11:15 AM 12.2 °F -7.1 °F -0.4 °F 57% 30.14 in 4.0 mi North 23.0 mph 29.9 mph N/A   Clear
11:34 AM 12.2 °F -7.1 °F -0.4 °F 57% 30.14 in 5.0 mi NNE 23.0 mph 26.5 mph N/A   Clear
11:54 AM 12.2 °F -6.3 °F -0.4 °F 57% 30.14 in 10.0 mi NNE 20.7 mph 25.3 mph N/A   Clear
12:15 PM 12.2 °F -7.1 °F -0.4 °F 57% 30.14 in 7.0 mi North 23.0 mph 26.5 mph N/A   Clear
12:34 PM 12.2 °F -6.3 °F -0.4 °F 57% 30.14 in 7.0 mi North 20.7 mph 27.6 mph N/A   Clear
12:54 PM 12.2 °F -6.7 °F -0.4 °F 57% 30.14 in 10.0 mi North 21.9 mph 25.3 mph N/A   Clear
1:15 PM 12.2 °F -7.1 °F -0.4 °F 57% 30.13 in 4.0 mi North 23.0 mph 29.9 mph N/A   Clear
1:34 PM 12.2 °F -5.8 °F -0.4 °F 57% 30.14 in 7.0 mi North 19.6 mph 24.2 mph N/A   Clear
1:54 PM 12.2 °F -6.3 °F -0.4 °F 57% 30.13 in 10.0 mi North 20.7 mph - N/A   Clear
2:15 PM 14.0 °F -3.0 °F -2.2 °F 49% 30.14 in 10.0 mi North 18.4 mph 26.5 mph N/A   Clear
2:34 PM 12.2 °F -6.3 °F -0.4 °F 57% 30.15 in 10.0 mi North 20.7 mph - N/A   Clear
2:54 PM 12.2 °F -6.3 °F -2.2 °F 53% 30.15 in 10.0 mi North 20.7 mph 25.3 mph N/A   Clear
3:14 PM 12.2 °F -6.3 °F -2.2 °F 53% 30.14 in 10.0 mi North 20.7 mph - N/A   Clear
3:34 PM 12.2 °F -4.3 °F -2.2 °F 53% 30.15 in 10.0 mi North 16.1 mph - N/A   Clear
3:55 PM 12.2 °F -4.3 °F -2.2 °F 53% 30.16 in 10.0 mi North 16.1 mph - N/A   Clear
4:14 PM 12.2 °F -3.1 °F -2.2 °F 53% 30.17 in 10.0 mi North 13.8 mph - N/A   Clear
4:34 PM 12.2 °F -4.8 °F -2.2 °F 53% 30.17 in 10.0 mi North 17.3 mph 21.9 mph N/A   Clear
4:55 PM 12.2 °F -4.8 °F -2.2 °F 53% 30.18 in 10.0 mi North 17.3 mph - N/A   Clear
5:14 PM 12.2 °F -3.1 °F -2.2 °F 53% 30.19 in 10.0 mi North 13.8 mph - N/A   Clear
5:34 PM 10.4 °F -6.6 °F -2.2 °F 57% 30.19 in 10.0 mi North 16.1 mph - N/A   Clear
5:55 PM 8.6 °F -7.7 °F -2.2 °F 62% 30.20 in 10.0 mi North 13.8 mph - N/A   Clear
6:14 PM 8.6 °F -4.7 °F -2.2 °F 62% 30.20 in 10.0 mi North 9.2 mph - N/A   Clear
6:34 PM 6.8 °F -5.9 °F -4.0 °F 61% 30.20 in 10.0 mi North 8.1 mph - N/A   Clear
6:55 PM 5.0 °F -5.6 °F -4.0 °F 66% 30.20 in 10.0 mi North 5.8 mph - N/A   Clear
7:14 PM 6.8 °F -2.0 °F -4.0 °F 61% 30.20 in 10.0 mi North 4.6 mph - N/A   Clear
7:34 PM 5.0 °F -2.1 °F -4.0 °F 66% 30.20 in 10.0 mi NNW 3.5 mph - N/A   Clear
7:55 PM 1.4 °F - -5.8 °F 72% 30.20 in 10.0 mi Calm Calm - N/A   Clear
8:14 PM 3.2 °F - -4.0 °F 72% 30.20 in 10.0 mi Calm Calm - N/A   Clear
8:34 PM 3.2 °F - -4.0 °F 72% 30.20 in 10.0 mi Calm Calm - N/A   Clear
8:55 PM 1.4 °F - -4.0 °F 78% 30.19 in 10.0 mi Calm Calm - N/A   Clear
9:14 PM 1.4 °F - -2.2 °F 85% 30.19 in 10.0 mi Calm Calm - N/A   Clear
9:34 PM 1.4 °F -9.9 °F -4.0 °F 78% 30.19 in 10.0 mi WNW 5.8 mph - N/A   Clear
9:55 PM 1.4 °F -6.2 °F -4.0 °F 78% 30.20 in 10.0 mi WNW 3.5 mph - N/A   Clear
10:14 PM -0.4 °F - -4.0 °F 85% 30.19 in 10.0 mi Calm Calm - N/A   Clear
10:34 PM -0.4 °F - -4.0 °F 85% 30.19 in 10.0 mi Calm Calm - N/A   Clear
10:55 PM 1.4 °F - -2.2 °F 85% 30.19 in 10.0 mi Calm Calm - N/A   Clear
11:14 PM 1.4 °F - -2.2 °F 85% 30.19 in 10.0 mi Calm Calm - N/A   Clear
11:34 PM -0.4 °F -8.3 °F -4.0 °F 85% 30.19 in 10.0 mi WSW 3.5 mph - N/A   Clear
11:55 PM 1.4 °F - -2.2 °F 85% 30.19 in 10.0 mi Calm Calm - N/A   Clear